Simultaneous Nadir Overpasses (SNOs) Predictions

Prediction of SNOs between GOES-15 and LANDSAT-8 Satellite Orbit:

Table of predicted SNOs for the next 14.0 days since TLE Epoch: 1/13/2024
Index Date Time (GOES-15) GOES-15 Lat,Lon LANDSAT-8 Lat,Lon Distance(km) Time Diff (sec)
1 01/14/2024 06:05:23 -0.01, 61.56 -0.10, 62.08 58.78 80
2 01/16/2024 05:53:12 -0.01, 61.59 -0.75, 65.03 391.03 80
3 01/16/2024 18:14:36 0.00, 61.60 -0.36, 59.84 199.54 80
4 01/18/2024 17:59:44 0.01, 61.64 0.27, 62.80 132.18 80
5 01/19/2024 06:20:58 -0.00, 61.66 0.85, 57.65 456.90 80
6 01/20/2024 17:47:31 0.01, 61.68 0.85, 65.76 463.50 80
7 01/21/2024 06:08:46 -0.01, 61.71 0.20, 60.60 125.48 80
8 01/23/2024 05:59:14 -0.01, 61.76 -0.41, 63.56 205.66 80
9 01/23/2024 18:20:36 0.01, 61.75 -0.73, 58.38 383.17 80
10 01/25/2024 18:08:23 0.01, 61.80 -0.09, 61.34 52.17 80
